Location: Unspecified
(0.0000°N, 0.0000°E)
Time: 22:10:36
(UTC+00:00)

deb Explorer IX - All Passes

Search period start: 16 April 2014 00:00
Search period end: 26 April 2014 00:00
Orbit: 550 x 1234 km, 38.8° (Epoch: 16 April)

Date Brightness Start Highest point End Pass type
(mag) Time Alt. Az. Time Alt. Az. Time Alt. Az.
16 Apr - 02:29:22 10° SSE 02:30:47 11° SE 02:32:09 10° SE night (unlit)
16 Apr - 04:15:02 10° WSW 04:19:08 61° NW 04:23:12 10° NE visible
16 Apr - 13:31:06 10° N 13:34:37 14° NE 13:38:16 10° ENE daylight
16 Apr - 15:16:17 10° NW 15:23:55 64° NE 15:31:51 10° ESE daylight
16 Apr - 17:06:15 10° W 17:13:09 32° SW 17:19:56 10° SSE daylight
17 Apr - 02:26:51 10° S 02:29:56 18° SE 02:32:52 10° E night (unlit)
17 Apr - 04:14:22 10° WSW 04:18:11 35° NW 04:21:58 10° NNE visible
17 Apr - 13:28:45 10° N 13:33:41 19° NE 13:38:54 10° E daylight
17 Apr - 15:15:08 10° NW 15:22:50 84° NE 15:30:55 10° SE daylight
17 Apr - 17:06:03 10° W 17:12:10 24° SW 17:18:13 10° SSE daylight
18 Apr - 02:25:07 10° SSW 02:29:04 29° SE 02:32:41 10° E night (unlit)
18 Apr - 04:14:00 10° W 04:17:14 22° NW 04:20:25 10° N visible
18 Apr - 13:26:52 10° NNW 13:32:40 26° NE 13:38:56 10° E daylight
18 Apr - 15:14:07 10° NW 15:21:44 74° SW 15:29:47 10° SE daylight
18 Apr - 17:06:15 10° WSW 17:11:14 18° SW 17:16:11 10° S daylight
19 Apr - 02:23:43 10° SW 02:28:08 49° SE 02:32:08 10° ENE night (unlit)
19 Apr - 04:14:11 10° WNW 04:16:17 14° NW 04:18:22 10° N visible
19 Apr - 13:25:14 10° NNW 13:31:35 35° NE 13:38:36 10° ESE daylight
19 Apr - 15:13:16 10° WNW 15:20:39 55° SW 15:28:30 10° SE daylight
19 Apr - 17:07:11 10° WSW 17:10:22 13° SW 17:13:32 10° SSW daylight
20 Apr - 02:22:32 10° SW 02:27:10 84° SE 02:31:19 10° NE night (unlit)
20 Apr - 13:23:47 10° NNW 13:30:28 47° NE 13:37:59 10° ESE daylight
20 Apr - 15:12:35 10° WNW 15:19:36 41° SW 15:27:04 10° SSE daylight
21 Apr - 00:34:37 10° S 00:37:35 15° SE 00:40:19 10° ESE night (unlit)
21 Apr - 02:21:33 10° WSW 02:26:10 58° NW 02:30:15 10° NE night (unlit)
21 Apr - 11:38:15 10° NNE 11:40:28 12° NE 11:42:47 10° ENE daylight
21 Apr - 13:22:29 10° NW 13:29:20 64° NE 13:37:08 10° ESE daylight
21 Apr - 15:12:08 10° W 15:18:35 31° SW 15:25:26 10° SSE daylight
22 Apr - 00:32:33 10° SSW 00:36:44 24° SE 00:40:25 10° E night (unlit)
22 Apr - 02:20:49 10° WSW 02:25:07 35° NW 02:28:58 10° NNE night (unlit)
22 Apr - 11:35:30 10° N 11:39:27 17° NE 11:43:45 10° E daylight
22 Apr - 13:21:20 10° NW 13:28:12 86° NE 13:36:06 10° SE daylight
22 Apr - 15:11:58 10° W 15:17:37 23° SW 15:23:35 10° SSE daylight
23 Apr - 00:30:52 10° SSW 00:35:49 36° SE 00:40:03 10° ENE night (unlit)
23 Apr - 02:20:22 10° W 02:24:03 22° NW 02:27:25 10° N night (unlit)
23 Apr - 11:33:30 10° N 11:38:21 23° NE 11:43:50 10° E daylight
23 Apr - 13:20:20 10° NW 13:27:05 71° SW 13:34:53 10° SE daylight
23 Apr - 15:12:13 10° WSW 15:16:42 17° SW 15:21:23 10° S daylight
24 Apr - 00:29:26 10° SW 00:34:51 57° SE 00:39:22 10° ENE night (unlit)
24 Apr - 02:20:24 10° WNW 02:22:59 15° NW 02:25:25 10° N night (unlit)
24 Apr - 11:31:48 10° NNW 11:37:12 32° NE 11:43:28 10° ESE daylight
24 Apr - 13:19:30 10° WNW 13:26:00 52° SW 13:33:30 10° SE daylight
24 Apr - 15:13:25 10° SW 15:15:52 12° SSW 15:18:21 10° SSW daylight
24 Apr - 22:41:45 10° S 22:44:46 14° SSE 22:47:34 10° ESE night (unlit)
25 Apr - 00:28:12 10° SW 00:33:49 90° SE 00:38:27 10° NE night (unlit)
25 Apr - 11:30:20 10° NNW 11:36:02 44° NE 11:42:49 10° ESE daylight
25 Apr - 13:18:51 10° WNW 13:24:58 37° SW 13:31:57 10° SSE daylight
25 Apr - 22:39:22 10° SSW 22:43:55 21° SE 22:47:55 10° E night (unlit)
